Time,TemperatureF,DewpointF,PressureIn,WindDirection,WindDirectionDegrees,WindSpeedMPH,WindSpeedGustMPH,Humidity,HourlyPrecipIn,Conditions,Clouds,dailyrainin,SoftwareType,DateUTC
2013-01-13 00:04:00,66.7,63.7,29.90,South,180,2.2,-999.0,90,-99.99,,,0.00,Acu-Link.com,2013-01-13 05:04:00,
2013-01-13 00:19:00,66.6,63.9,29.90,SE,135,1.7,-999.0,91,-99.99,,,0.00,Acu-Link.com,2013-01-13 05:19:00,
2013-01-13 00:34:00,66.4,63.7,29.90,West,270,0.0,-999.0,91,-99.99,,,0.00,Acu-Link.com,2013-01-13 05:34:00,
2013-01-13 00:50:00,65.5,63.1,29.90,East,90,1.1,-999.0,92,-99.99,,,0.00,Acu-Link.com,2013-01-13 05:50:00,
2013-01-13 01:05:00,65.5,63.4,29.90,SE,135,0.0,-999.0,93,-99.99,,,0.00,Acu-Link.com,2013-01-13 06:05:00,
2013-01-13 01:20:00,65.1,63.0,29.90,SSE,157,0.0,-999.0,93,-99.99,,,0.00,Acu-Link.com,2013-01-13 06:20:00,
2013-01-13 01:35:00,64.9,62.8,29.90,SE,135,0.0,-999.0,93,-99.99,,,0.00,Acu-Link.com,2013-01-13 06:35:00,
2013-01-13 01:51:00,65.1,63.0,29.90,ESE,112,1.1,-999.0,93,-99.99,,,0.00,Acu-Link.com,2013-01-13 06:51:00,
2013-01-13 02:06:00,64.2,61.8,29.90,ESE,112,0.0,-999.0,92,-99.99,,,0.00,Acu-Link.com,2013-01-13 07:06:00,
2013-01-13 02:21:00,63.3,61.2,29.90,ESE,112,0.0,-999.0,93,-99.99,,,0.00,Acu-Link.com,2013-01-13 07:21:00,
2013-01-13 02:37:00,62.8,60.4,29.90,ESE,112,0.0,-999.0,92,-99.99,,,0.00,Acu-Link.com,2013-01-13 07:37:00,
2013-01-13 02:52:00,62.4,60.3,29.91,ESE,112,0.0,-999.0,93,-99.99,,,0.00,Acu-Link.com,2013-01-13 07:52:00,
2013-01-13 03:07:00,61.9,60.2,29.90,ESE,112,0.0,-999.0,94,-99.99,,,0.00,Acu-Link.com,2013-01-13 08:07:00,
2013-01-13 03:23:00,61.5,59.8,29.90,ESE,112,0.0,-999.0,94,-99.99,,,0.00,Acu-Link.com,2013-01-13 08:23:00,
2013-01-13 03:38:00,61.3,60.1,29.90,ESE,112,0.0,-999.0,96,-99.99,,,0.00,Acu-Link.com,2013-01-13 08:38:00,
2013-01-13 03:53:00,61.2,60.0,29.89,ESE,112,0.0,-999.0,96,-99.99,,,0.00,Acu-Link.com,2013-01-13 08:53:00,
2013-01-13 04:09:00,61.3,60.4,29.89,ESE,112,0.0,-999.0,97,-99.99,,,0.00,Acu-Link.com,2013-01-13 09:09:00,
2013-01-13 04:25:00,61.3,60.7,29.88,ESE,112,0.0,-999.0,98,-99.99,,,0.00,Acu-Link.com,2013-01-13 09:25:00,
2013-01-13 04:40:00,61.2,60.6,29.88,East,90,0.0,-999.0,98,-99.99,,,0.00,Acu-Link.com,2013-01-13 09:40:00,
2013-01-13 04:55:00,61.0,60.4,29.88,SE,135,0.0,-999.0,98,-99.99,,,0.00,Acu-Link.com,2013-01-13 09:55:00,
2013-01-13 05:10:00,60.6,60.0,29.88,NNE,22,0.0,-999.0,98,-99.99,,,0.00,Acu-Link.com,2013-01-13 10:10:00,
2013-01-13 05:26:00,60.4,59.8,29.88,SE,135,0.0,-999.0,98,-99.99,,,0.00,Acu-Link.com,2013-01-13 10:26:00,
2013-01-13 05:41:00,60.1,59.2,29.88,ESE,112,0.0,-999.0,97,-99.99,,,0.00,Acu-Link.com,2013-01-13 10:41:00,
2013-01-13 05:56:00,59.7,58.8,29.89,ESE,112,0.0,-999.0,97,-99.99,,,0.00,Acu-Link.com,2013-01-13 10:56:00,
2013-01-13 06:11:00,59.9,59.3,29.89,SE,135,0.0,-999.0,98,-99.99,,,0.00,Acu-Link.com,2013-01-13 11:11:00,
2013-01-13 06:27:00,59.7,59.1,29.89,East,90,0.0,-999.0,98,-99.99,,,0.00,Acu-Link.com,2013-01-13 11:27:00,
2013-01-13 06:42:00,59.4,58.8,29.89,East,90,0.0,-999.0,98,-99.99,,,0.00,Acu-Link.com,2013-01-13 11:42:00,
2013-01-13 06:58:00,59.2,58.3,29.90,East,90,0.0,-999.0,97,-99.99,,,0.00,Acu-Link.com,2013-01-13 11:58:00,
2013-01-13 07:13:00,60.1,59.5,29.90,ESE,112,0.0,-999.0,98,-99.99,,,0.00,Acu-Link.com,2013-01-13 12:13:00,
2013-01-13 07:28:00,60.1,59.5,29.90,East,90,0.0,-999.0,98,-99.99,,,0.00,Acu-Link.com,2013-01-13 12:28:00,
2013-01-13 07:44:00,61.2,60.9,29.90,SW,225,2.2,-999.0,99,-99.99,,,0.00,Acu-Link.com,2013-01-13 12:44:00,
2013-01-13 07:59:00,63.7,62.2,29.90,ESE,112,2.2,-999.0,95,-99.99,,,0.00,Acu-Link.com,2013-01-13 12:59:00,
2013-01-13 08:14:00,65.3,62.9,29.90,NE,45,1.1,-999.0,92,-99.99,,,0.00,Acu-Link.com,2013-01-13 13:14:00,
2013-01-13 08:29:00,67.3,63.9,29.91,ENE,67,2.2,-999.0,89,-99.99,,,0.00,Acu-Link.com,2013-01-13 13:29:00,
2013-01-13 08:45:00,70.3,65.2,29.92,East,90,0.0,-999.0,84,-99.99,,,0.00,Acu-Link.com,2013-01-13 13:45:00,
2013-01-13 09:00:00,70.7,65.3,29.94,South,180,1.7,-999.0,83,-99.99,,,0.00,Acu-Link.com,2013-01-13 14:00:00,
2013-01-13 09:15:00,72.7,65.8,29.94,East,90,2.7,-999.0,79,-99.99,,,0.00,Acu-Link.com,2013-01-13 14:15:00,
2013-01-13 09:31:00,74.5,66.0,29.96,East,90,2.7,-999.0,75,-99.99,,,0.00,Acu-Link.com,2013-01-13 14:31:00,
2013-01-13 09:46:00,76.5,66.4,29.97,NE,45,2.7,-999.0,71,-99.99,,,0.00,Acu-Link.com,2013-01-13 14:46:00,
2013-01-13 10:01:00,76.1,66.4,29.97,ESE,112,3.7,-999.0,72,-99.99,,,0.00,Acu-Link.com,2013-01-13 15:01:00,
2013-01-13 10:17:00,79.0,67.9,29.97,NNE,22,5.8,-999.0,69,-99.99,,,0.00,Acu-Link.com,2013-01-13 15:17:00,
2013-01-13 10:32:00,78.3,66.4,29.98,East,90,5.8,-999.0,67,-99.99,,,0.00,Acu-Link.com,2013-01-13 15:32:00,
2013-01-13 10:47:00,79.2,66.0,29.97,NW,315,6.3,-999.0,64,-99.99,,,0.00,Acu-Link.com,2013-01-13 15:47:00,
2013-01-13 11:02:00,78.4,65.6,29.97,East,90,4.7,-999.0,65,-99.99,,,0.00,Acu-Link.com,2013-01-13 16:02:00,
2013-01-13 11:18:00,81.7,66.9,29.96,East,90,4.2,-999.0,61,-99.99,,,0.00,Acu-Link.com,2013-01-13 16:18:00,
2013-01-13 11:33:00,81.9,66.6,29.96,NE,45,2.7,-999.0,60,-99.99,,,0.00,Acu-Link.com,2013-01-13 16:33:00,
2013-01-13 11:48:00,82.0,65.7,29.95,NNE,22,2.2,-999.0,58,-99.99,,,0.00,Acu-Link.com,2013-01-13 16:48:00,
2013-01-13 12:04:00,82.0,65.7,29.94,East,90,2.2,-999.0,58,-99.99,,,0.00,Acu-Link.com,2013-01-13 17:04:00,
2013-01-13 12:19:00,81.5,65.3,29.93,ENE,67,3.2,-999.0,58,-99.99,,,0.00,Acu-Link.com,2013-01-13 17:19:00,
2013-01-13 12:34:00,81.9,64.1,29.92,SE,135,2.7,-999.0,55,-99.99,,,0.00,Acu-Link.com,2013-01-13 17:34:00,
2013-01-13 12:50:00,83.3,65.4,29.90,East,90,3.2,-999.0,55,-99.99,,,0.00,Acu-Link.com,2013-01-13 17:50:00,
2013-01-13 13:05:00,83.5,64.5,29.89,ESE,112,3.7,-999.0,53,-99.99,,,0.00,Acu-Link.com,2013-01-13 18:05:00,
2013-01-13 13:20:00,84.0,64.5,29.88,NNW,337,5.3,-999.0,52,-99.99,,,0.00,Acu-Link.com,2013-01-13 18:20:00,
2013-01-13 13:36:00,84.4,64.3,29.87,ESE,112,3.7,-999.0,51,-99.99,,,0.00,Acu-Link.com,2013-01-13 18:36:00,
2013-01-13 13:51:00,84.0,65.0,29.86,East,90,3.2,-999.0,53,-99.99,,,0.00,Acu-Link.com,2013-01-13 18:51:00,
2013-01-13 14:06:00,85.1,65.5,29.86,NE,45,2.7,-999.0,52,-99.99,,,0.00,Acu-Link.com,2013-01-13 19:06:00,
2013-01-13 14:21:00,84.9,65.3,29.85,SE,135,2.2,-999.0,52,-99.99,,,0.00,Acu-Link.com,2013-01-13 19:21:00,
2013-01-13 14:37:00,81.7,63.9,29.86,ESE,112,3.2,-999.0,55,-99.99,,,0.00,Acu-Link.com,2013-01-13 19:37:00,
2013-01-13 14:52:00,82.0,63.7,29.86,ESE,112,3.2,-999.0,54,-99.99,,,0.00,Acu-Link.com,2013-01-13 19:52:00,
2013-01-13 15:07:00,81.9,63.6,29.86,East,90,2.7,-999.0,54,-99.99,,,0.00,Acu-Link.com,2013-01-13 20:07:00,
2013-01-13 15:23:00,81.3,63.6,29.86,ESE,112,1.7,-999.0,55,-99.99,,,0.00,Acu-Link.com,2013-01-13 20:23:00,
2013-01-13 15:38:00,80.8,62.6,29.87,West,270,2.2,-999.0,54,-99.99,,,0.00,Acu-Link.com,2013-01-13 20:38:00,
2013-01-13 15:53:00,81.0,64.3,29.88,SW,225,0.0,-999.0,57,-99.99,,,0.00,Acu-Link.com,2013-01-13 20:53:00,
2013-01-13 16:09:00,80.1,64.9,29.88,SE,135,1.7,-999.0,60,-99.99,,,0.00,Acu-Link.com,2013-01-13 21:09:00,
2013-01-13 16:24:00,79.9,65.2,29.88,WNW,292,1.7,-999.0,61,-99.99,,,0.00,Acu-Link.com,2013-01-13 21:24:00,
2013-01-13 16:39:00,79.5,65.3,29.88,NE,45,1.7,-999.0,62,-99.99,,,0.00,Acu-Link.com,2013-01-13 21:39:00,
2013-01-13 16:54:00,78.6,65.4,29.88,WNW,292,0.0,-999.0,64,-99.99,,,0.00,Acu-Link.com,2013-01-13 21:54:00,
2013-01-13 17:10:00,77.9,65.2,29.89,ESE,112,0.0,-999.0,65,-99.99,,,0.00,Acu-Link.com,2013-01-13 22:10:00,
2013-01-13 17:25:00,76.8,64.6,29.89,SE,135,0.0,-999.0,66,-99.99,,,0.00,Acu-Link.com,2013-01-13 22:25:00,
2013-01-13 17:40:00,75.2,64.3,29.89,East,90,1.7,-999.0,69,-99.99,,,0.00,Acu-Link.com,2013-01-13 22:40:00,
2013-01-13 17:56:00,74.7,64.2,29.88,WNW,292,0.0,-999.0,70,-99.99,,,0.00,Acu-Link.com,2013-01-13 22:56:00,
2013-01-13 18:11:00,74.5,64.1,29.88,East,90,2.2,-999.0,70,-99.99,,,0.00,Acu-Link.com,2013-01-13 23:11:00,
2013-01-13 18:26:00,73.9,63.9,29.89,ESE,112,2.2,-999.0,71,-99.99,,,0.00,Acu-Link.com,2013-01-13 23:26:00,
2013-01-13 18:42:00,73.6,64.8,29.90,ESE,112,3.7,-999.0,74,-99.99,,,0.00,Acu-Link.com,2013-01-13 23:42:00,
2013-01-13 18:57:00,73.0,65.0,29.90,SSE,157,2.2,-999.0,76,-99.99,,,0.00,Acu-Link.com,2013-01-13 23:57:00,
2013-01-13 19:12:00,72.7,65.1,29.90,East,90,1.7,-999.0,77,-99.99,,,0.00,Acu-Link.com,2013-01-14 00:12:00,
2013-01-13 19:28:00,72.1,64.9,29.90,East,90,4.7,-999.0,78,-99.99,,,0.00,Acu-Link.com,2013-01-14 00:28:00,
2013-01-13 19:43:00,71.8,65.3,29.89,East,90,4.7,-999.0,80,-99.99,,,0.00,Acu-Link.com,2013-01-14 00:43:00,
2013-01-13 19:58:00,71.6,65.1,29.90,ESE,112,3.2,-999.0,80,-99.99,,,0.00,Acu-Link.com,2013-01-14 00:58:00,
2013-01-13 20:14:00,71.2,65.4,29.90,ESE,112,3.7,-999.0,82,-99.99,,,0.00,Acu-Link.com,2013-01-14 01:14:00,
2013-01-13 20:29:00,71.1,65.3,29.90,SSW,202,1.7,-999.0,82,-99.99,,,0.00,Acu-Link.com,2013-01-14 01:29:00,
2013-01-13 20:44:00,71.1,65.7,29.89,ENE,67,3.7,-999.0,83,-99.99,,,0.00,Acu-Link.com,2013-01-14 01:44:00,
2013-01-13 21:00:00,70.2,65.1,29.90,ENE,67,3.2,-999.0,84,-99.99,,,0.00,Acu-Link.com,2013-01-14 02:00:00,
2013-01-13 21:15:00,69.8,65.1,29.90,SSE,157,1.7,-999.0,85,-99.99,,,0.00,Acu-Link.com,2013-01-14 02:15:00,
2013-01-13 21:30:00,69.4,65.0,29.91,East,90,2.2,-999.0,86,-99.99,,,0.00,Acu-Link.com,2013-01-14 02:30:00,
2013-01-13 21:45:00,69.1,65.1,29.91,ESE,112,2.2,-999.0,87,-99.99,,,0.00,Acu-Link.com,2013-01-14 02:45:00,
2013-01-13 22:00:00,68.5,64.8,29.91,SE,135,0.0,-999.0,88,-99.99,,,0.00,Acu-Link.com,2013-01-14 03:00:00,
2013-01-13 22:16:00,68.5,65.1,29.92,NNE,22,1.1,-999.0,89,-99.99,,,0.00,Acu-Link.com,2013-01-14 03:16:00,
2013-01-13 22:31:00,67.8,64.8,29.92,NE,45,1.7,-999.0,90,-99.99,,,0.00,Acu-Link.com,2013-01-14 03:31:00,
2013-01-13 22:46:00,67.3,64.6,29.93,ESE,112,0.0,-999.0,91,-99.99,,,0.00,Acu-Link.com,2013-01-14 03:46:00,
2013-01-13 23:02:00,68.4,64.4,29.93,NNW,337,1.7,-999.0,87,-99.99,,,0.00,Acu-Link.com,2013-01-14 04:02:00,
2013-01-13 23:17:00,66.6,63.3,29.94,East,90,0.0,-999.0,89,-99.99,,,0.00,Acu-Link.com,2013-01-14 04:17:00,
2013-01-13 23:32:00,65.5,63.1,29.93,SE,135,0.0,-999.0,92,-99.99,,,0.00,Acu-Link.com,2013-01-14 04:32:00,
2013-01-13 23:48:00,65.1,62.4,29.94,NNW,337,0.0,-999.0,91,-99.99,,,0.00,Acu-Link.com,2013-01-14 04:48:00,